Location: Franzen
(48.6167°N, 15.3833°E)
Time: 04:48:25
(UTC+00:00)

Altair - Pass Details

Date: 13 August 2021
Orbit: 1501 x 1682 km, 47.2° (Epoch: 21 September)

Event Time Altitude Azimuth Distance (km) Brightness Sun altitude
Rises 22:33:39 0° 248° (WSW) 4,825 10.0 -26.7°
Reaches altitude 10° 22:36:48 10° 247° (WSW) 3,816 9.4 -26.7°
Maximum altitude 22:46:25 75° 165° (SSE) 1,606 7.3 -26.9°
Drops below altitude 10° 22:55:43 10° 82° (E) 3,689 9.5 -27.0°
Sets 22:58:42 0° 81° (E) 4,657 10.1 -27.0°
